Location: Hackbridge
(51.3833°N, 0.1500°W)
Time: 19:54:10
(UTC+00:00)

Cosmos 1953 - Pass Details

Date: 13 October 2019
Orbit: 538 x 559 km, 82.5° (Epoch: 14 November)

Event Time Altitude Azimuth Distance (km) Brightness Sun altitude
Rises 17:43:25 0° 165° (SSE) 2,732 5.8 -5.6°
Reaches altitude 10° 17:45:42 10° 156° (SSE) 1,844 4.8 -6.0°
Maximum altitude 17:49:23 34° 91° (E) 941 3.0 -6.5°
Drops below altitude 10° 17:53:05 10° 27° (NNE) 1,860 4.7 -7.1°
Sets 17:55:24 0° 18° (NNE) 2,760 5.7 -7.5°
